Wind_Speed
6 7 7 8 8 7 7 7 6 5 5 4 3 2 2 2 3 4 5 5 5 6 7 7 8 8 8 9 9 9 9 9 9 9 9 10 10 11 11 12 13 14 13
6 7 8 8 8 7 7 6 5 5 4 4 3 3 2 3 3 4 4 5 5 6 6 6 7 8 8 9 9 9 9 9 10 10 10 10 10 10 11 12 13 14 13
5 6 8 8 8 7 6 6 5 5 5 4 4 4 3 3 4 4 5 5 5 6 6 7 7 8 9 9 9 10 10 10 10 10 10 10 11 12 12 13 13 14 14
5 6 7 7 7 7 6 6 5 5 5 5 4 4 4 4 4 4 5 5 5 5 6 6 7 7 8 9 9 10 11 11 11 11 11 11 11 12 12 14 14 15 15
4 5 6 6 6 6 6 6 5 5 5 4 4 5 5 5 5 5 5 5 5 5 6 7 7 8 8 9 9 10 11 11 11 11 11 11 11 11 12 14 15 15 15
4 5 5 6 6 6 6 6 6 5 4 4 5 5 5 5 6 5 5 5 5 5 6 6 7 8 8 9 9 10 11 11 11 12 12 11 11 11 12 13 15 16 17
4 5 5 6 6 6 6 6 6 5 5 5 5 5 5 5 6 6 6 5 5 5 6 7 7 8 8 9 10 10 10 11 11 11 12 12 12 13 13 13 13 14 16
5 5 6 6 6 6 6 6 5 5 5 5 5 6 6 6 7 7 7 6 5 6 6 7 8 8 8 9 9 9 10 11 11 11 10 11 11 12 14 13 13 14 15
6 6 6 6 6 6 6 6 6 6 5 5 6 6 7 7 7 7 6 6 6 7 7 7 8 9 9 10 10 10 10 11 11 11 10 10 10 11 12 13 13 13 14
6 7 7 7 7 7 7 6 6 7 7 7 7 7 8 8 8 7 7 8 8 8 8 8 8 9 10 11 11 11 11 11 12 12 12 12 12 12 12 13 14 14 15
7 7 7 7 7 7 8 8 8 8 8 8 8 8 8 9 8 8 8 9 9 9 9 9 10 10 11 12 12 12 12 12 13 13 14 14 14 14 15 15 15 16 16
8 7 8 8 8 8 8 8 8 9 8 9 9 9 9 9 9 9 10 9 10 10 11 11 11 12 12 12 13 13 13 14 14 15 15 15 16 16 17 17 17 18 18
9 9 9 9 9 9 9 9 9 9 9 10 10 10 10 10 10 10 11 11 11 11 12 12 12 12 13 13 14 14 15 15 15 16 16 16 17 17 18 19 19 20 20
11 11 11 10 10 10 9 9 10 10 11 11 11 11 11 11 11 11 11 12 12 12 12 12 12 13 13 13 14 15 15 15 16 17 17 17 18 18 19 19 20 21 22
11 11 11 11 11 11 10 11 11 11 12 12 12 12 12 12 12 12 12 13 13 13 13 13 13 13 14 14 14 14 15 15 16 17 17 18 18 19 20 20 21 22 23
12 12 13 13 13 13 12 12 13 13 13 14 14 13 14 14 14 14 14 14 14 14 14 14 15 15 15 14 14 15 15 16 17 18 19 19 20 21 22 22 23 24 25
13 13 14 14 14 14 14 14 14 15 15 15 15 15 15 15 16 16 16 15 15 16 16 16 17 17 16 16 16 16 17 18 19 20 21 21 22 23 24 25 25 26 27
15 15 15 16 16 16 15 16 16 16 16 16 16 16 16 17 17 18 17 17 18 18 18 18 19 19 19 19 19 19 19 20 21 22 23 23 24 25 26 28 29 30 31
16 16 16 16 16 17 17 17 17 17 18 17 17 18 18 18 19 19 19 20 20 20 21 21 21 21 22 22 22 22 22 23 24 24 25 27 28 29 30 31 31 32 33
16 16 16 16 16 17 18 18 18 18 19 19 19 19 20 20 20 21 21 22 22 23 23 23 23 23 24 24 25 25 25 26 27 28 29 30 31 32 32 33 33 34 34
16 16 17 17 18 18 19 19 19 20 20 20 21 21 21 22 22 23 23 23 24 24 25 25 25 26 26 27 27 28 28 29 30 31 32 32 32 33 33 33 34 35 35
17 18 18 18 19 19 20 20 20 21 21 22 22 23 23 23 24 24 25 26 26 26 26 27 27 28 29 29 30 30 31 32 32 33 33 33 33 33 34 35 36 37 37
19 19 20 20 20 20 20 21 21 22 23 23 23 24 24 24 25 26 27 27 28 28 29 29 30 30 31 31 32 32 33 34 34 34 34 34 35 36 37 38 38 39 40
19 19 20 20 21 21 22 22 23 23 24 24 25 25 25 26 27 27 28 29 30 30 30 31 32 33 33 34 35 35 36 36 35 36 36 37 37 38 39 39 39 40 41
20 21 21 21 22 23 23 24 24 25 25 25 26 26 27 28 29 29 30 31 31 32 32 33 34 35 35 36 37 37 37 37 37 38 39 39 40 40 40 41 41 42 42
22 23 23 23 24 24 25 25 25 26 26 27 27 28 28 29 30 31 32 33 33 34 34 35 36 37 37 38 39 39 39 40 40 40 41 42 42 42 42 41 42 43 44
Wind_Direction
4 9 8 5 3 2 1 359 360 6 7 1 352 334 315 308 284 267 265 265 263 260 258 256 254 255 255 255 255 257 256 255 255 256 253 254 256 253 247 238 232 232 234
12 12 10 6 3 1 2 6 10 15 11 7 4 353 331 319 303 283 277 271 269 268 264 263 258 257 257 256 255 258 258 261 259 260 256 256 257 253 247 237 232 231 232
7 9 10 11 10 8 9 15 17 18 15 10 10 9 355 337 323 304 291 283 279 275 271 266 263 261 259 256 258 259 257 259 261 262 261 260 258 254 250 240 236 235 234
358 0 5 9 8 7 11 15 17 18 17 11 7 6 1 352 335 317 303 296 290 280 273 268 266 265 263 258 260 261 256 258 262 264 264 263 261 256 248 241 238 238 237
349 354 359 2 1 1 5 8 12 12 11 9 5 2 358 352 340 325 315 306 296 284 276 270 268 270 267 265 265 265 259 262 264 266 266 265 262 255 250 245 240 239 238
339 343 350 354 353 355 360 1 2 4 -0 358 358 355 351 347 342 333 325 318 308 294 284 277 273 272 270 270 271 269 265 262 262 263 266 264 260 257 252 248 243 240 239
328 334 338 342 345 346 349 353 353 355 356 349 349 351 351 346 345 342 333 325 316 303 293 286 280 275 274 274 275 274 266 259 258 259 265 265 261 255 247 244 243 242 239
313 322 325 329 333 334 336 341 344 343 347 347 346 346 347 345 342 337 335 333 323 311 301 290 283 281 278 276 275 270 262 260 263 264 268 268 264 256 246 244 243 241 239
305 312 318 320 323 324 324 328 329 328 328 332 336 335 336 337 334 334 334 331 325 316 307 295 285 283 282 280 276 270 264 262 263 266 268 269 265 260 252 247 246 243 243
300 305 312 315 315 317 318 318 319 320 320 321 323 324 326 326 327 331 328 323 321 316 310 303 295 289 285 282 278 271 267 264 264 266 265 268 265 261 257 253 252 251 249
296 301 308 312 313 313 312 313 315 314 313 315 317 318 320 321 322 324 322 319 317 314 309 306 301 295 291 284 278 274 270 267 267 267 267 266 264 260 256 255 255 254 254
295 297 303 306 309 310 310 309 310 310 309 309 310 311 312 312 312 314 315 314 311 309 308 305 304 299 293 287 282 280 275 271 270 270 269 267 265 263 260 259 258 257 256
292 295 296 299 301 303 306 308 308 307 307 306 306 307 308 308 307 308 309 310 309 308 308 306 304 302 297 290 284 283 279 275 272 272 272 270 268 267 264 262 261 259 258
290 292 292 294 295 296 299 301 304 305 304 303 304 305 306 307 307 308 309 310 310 309 309 306 305 305 301 294 288 285 282 277 274 273 272 272 270 269 268 266 264 262 261
287 287 289 291 291 291 293 295 298 300 301 301 301 302 302 304 305 306 307 309 309 308 308 308 306 305 303 299 293 288 284 280 278 277 275 273 271 270 269 268 267 266 265
286 286 285 287 287 288 290 292 293 294 296 298 299 298 298 300 301 302 304 306 307 308 308 307 306 306 304 299 296 293 289 284 282 281 280 278 276 273 272 271 270 269 267
285 285 284 285 285 286 288 289 291 292 293 294 294 294 294 296 297 299 301 301 302 304 306 305 304 302 302 299 296 295 292 289 286 284 283 282 280 278 276 274 273 272 271
284 284 282 282 284 287 287 288 290 291 291 292 292 292 292 293 295 296 298 298 299 300 301 301 301 301 299 297 295 293 292 290 288 286 285 284 283 281 279 277 275 273 272
281 282 282 283 284 286 287 289 289 289 290 290 291 291 292 293 294 295 296 296 297 297 297 297 297 298 297 295 293 293 292 291 289 287 286 285 284 283 282 280 277 275 273
279 281 282 282 283 285 286 286 286 286 288 289 289 290 290 292 293 293 293 294 294 295 295 295 295 294 294 294 294 293 292 292 291 290 289 287 285 284 282 281 279 276 274
279 280 282 282 283 284 284 285 286 285 286 287 288 290 291 291 291 292 292 293 293 294 295 295 295 294 293 293 293 292 291 291 291 291 290 289 287 285 283 281 280 278 276
279 281 282 283 285 286 286 286 286 286 286 287 288 289 290 291 291 291 292 293 293 293 294 294 294 294 294 293 293 293 292 292 292 291 290 289 287 285 284 283 282 281 278
281 281 282 283 284 285 286 286 286 287 288 288 290 290 291 291 291 291 291 292 293 293 293 293 294 294 294 294 293 294 293 293 293 292 290 289 288 287 286 284 282 281 279
283 283 283 284 285 285 287 288 289 291 292 291 291 290 290 290 291 291 292 293 293 293 293 293 294 294 294 294 294 294 295 294 293 291 290 289 289 288 287 286 284 282 281
283 283 284 286 287 287 288 288 288 290 291 290 290 290 290 290 291 292 293 294 294 294 294 294 294 295 295 295 295 295 295 294 293 292 290 289 289 289 288 286 284 283 282
282 283 284 286 287 287 287 287 288 289 290 291 292 292 293 292 292 293 294 294 294 294 295 295 296 296 296 296 296 295 295 294 293 292 292 291 290 288 287 286 285 284 283
Height
5893 5892 5890 5888 5886 5884 5883 5881 5880 5878 5877 5876 5875 5875 5874 5874 5874 5873 5873 5873 5873 5874 5874 5874 5875 5875 5876 5876 5877 5877 5878 5878 5878 5878 5877 5877 5875 5872 5872 5872 5874 5877 5879
5893 5892 5890 5888 5886 5884 5883 5881 5880 5879 5878 5876 5875 5875 5874 5874 5873 5873 5872 5872 5872 5872 5872 5873 5873 5873 5874 5874 5874 5875 5876 5876 5876 5875 5875 5874 5873 5871 5871 5871 5873 5875 5877
5893 5892 5890 5888 5886 5884 5883 5881 5880 5879 5878 5877 5875 5875 5874 5873 5873 5872 5872 5871 5871 5871 5871 5871 5871 5871 5872 5872 5872 5873 5873 5873 5873 5873 5873 5872 5871 5870 5870 5870 5871 5873 5875
5893 5891 5890 5888 5886 5885 5883 5882 5880 5879 5878 5877 5876 5875 5874 5873 5872 5871 5871 5870 5870 5869 5869 5869 5869 5869 5869 5870 5870 5870 5870 5870 5870 5870 5870 5869 5869 5868 5867 5868 5870 5871 5872
5892 5891 5890 5888 5886 5885 5883 5882 5881 5879 5878 5877 5876 5875 5874 5873 5872 5871 5870 5869 5868 5868 5867 5867 5867 5867 5867 5867 5867 5867 5867 5867 5867 5867 5867 5866 5866 5865 5865 5866 5867 5868 5869
5892 5891 5889 5888 5886 5885 5883 5882 5881 5879 5878 5877 5876 5875 5874 5873 5872 5870 5869 5868 5867 5866 5866 5865 5865 5865 5865 5864 5864 5864 5864 5864 5864 5864 5863 5863 5863 5863 5863 5863 5864 5865 5866
5891 5890 5889 5887 5886 5885 5883 5882 5881 5879 5878 5877 5876 5875 5873 5872 5871 5870 5868 5867 5866 5865 5864 5863 5863 5863 5862 5862 5861 5860 5859 5860 5860 5860 5860 5859 5859 5859 5859 5860 5861 5861 5862
5890 5889 5888 5887 5885 5884 5883 5881 5880 5879 5878 5877 5876 5874 5873 5872 5870 5869 5867 5866 5865 5864 5863 5862 5861 5860 5859 5859 5859 5857 5856 5857 5857 5857 5856 5855 5854 5854 5855 5857 5858 5858 5859
5888 5888 5886 5885 5884 5883 5882 5881 5880 5879 5877 5876 5875 5874 5873 5871 5870 5868 5866 5865 5863 5862 5861 5860 5859 5858 5857 5856 5856 5855 5854 5854 5854 5854 5854 5853 5853 5852 5853 5854 5855 5856 5856
5887 5886 5885 5884 5883 5882 5881 5880 5878 5877 5876 5875 5874 5873 5871 5870 5868 5867 5865 5864 5862 5861 5859 5858 5857 5855 5854 5853 5852 5852 5852 5851 5851 5851 5851 5851 5851 5850 5850 5851 5852 5853 5853
5885 5885 5884 5883 5882 5881 5880 5878 5877 5876 5875 5874 5872 5871 5870 5868 5867 5865 5864 5862 5861 5859 5857 5856 5854 5853 5851 5850 5849 5848 5848 5848 5848 5848 5848 5847 5847 5847 5847 5848 5848 5849 5850
5884 5883 5882 5881 5880 5879 5878 5877 5876 5874 5873 5872 5871 5869 5868 5866 5865 5863 5862 5860 5858 5857 5855 5853 5851 5849 5848 5846 5845 5844 5844 5844 5844 5844 5844 5843 5843 5844 5844 5844 5844 5845 5845
5881 5881 5880 5879 5878 5877 5876 5875 5874 5872 5871 5870 5869 5867 5866 5864 5863 5861 5859 5857 5856 5854 5852 5850 5848 5846 5844 5842 5841 5840 5839 5839 5839 5839 5839 5839 5839 5839 5839 5839 5839 5840 5840
5879 5878 5877 5876 5876 5875 5874 5873 5871 5870 5869 5867 5866 5865 5863 5862 5860 5859 5857 5855 5853 5852 5850 5848 5846 5843 5841 5839 5837 5836 5835 5835 5835 5835 5835 5834 5834 5834 5834 5834 5834 5834 5835
5876 5875 5875 5874 5873 5872 5871 5870 5869 5868 5866 5865 5863 5862 5861 5859 5858 5856 5854 5853 5851 5849 5847 5845 5843 5840 5838 5836 5834 5832 5831 5831 5831 5830 5830 5829 5829 5829 5829 5829 5828 5828 5828
5873 5873 5872 5871 5870 5869 5868 5867 5866 5865 5863 5862 5861 5859 5857 5856 5855 5853 5852 5850 5848 5846 5844 5842 5840 5837 5835 5833 5831 5829 5828 5827 5826 5826 5825 5824 5824 5823 5823 5822 5822 5822 5821
5870 5869 5868 5867 5867 5866 5865 5863 5862 5861 5860 5858 5857 5856 5854 5853 5851 5850 5848 5847 5845 5843 5841 5838 5836 5834 5832 5830 5828 5826 5824 5823 5821 5820 5819 5818 5817 5816 5816 5815 5814 5813 5813
5866 5865 5865 5864 5863 5862 5861 5859 5858 5857 5856 5855 5853 5852 5850 5849 5847 5846 5844 5842 5841 5839 5837 5835 5832 5830 5828 5826 5824 5822 5820 5818 5816 5815 5813 5812 5810 5809 5808 5807 5806 5805 5804
5862 5861 5860 5859 5858 5857 5856 5855 5854 5853 5852 5850 5849 5847 5846 5844 5843 5841 5840 5838 5836 5834 5832 5830 5828 5825 5823 5821 5819 5817 5814 5812 5810 5808 5806 5805 5803 5801 5799 5797 5796 5795 5793
5858 5857 5856 5855 5854 5853 5852 5851 5849 5848 5847 5846 5844 5843 5841 5840 5838 5836 5834 5832 5831 5829 5827 5824 5822 5820 5818 5815 5813 5810 5808 5806 5803 5801 5798 5796 5794 5791 5789 5787 5785 5784 5782
5853 5852 5851 5850 5849 5848 5847 5846 5845 5843 5842 5840 5839 5837 5836 5834 5832 5831 5829 5827 5825 5823 5820 5818 5816 5813 5811 5808 5806 5803 5801 5798 5795 5793 5790 5787 5784 5781 5779 5777 5775 5773 5771
5848 5847 5846 5845 5844 5843 5842 5840 5839 5838 5836 5835 5833 5832 5830 5828 5826 5824 5822 5820 5818 5816 5814 5811 5809 5806 5803 5801 5798 5795 5792 5789 5786 5784 5780 5777 5774 5772 5769 5767 5764 5762 5760
5843 5842 5841 5840 5839 5837 5836 5835 5833 5832 5831 5829 5827 5825 5824 5822 5819 5818 5815 5813 5811 5808 5806 5804 5801 5798 5795 5792 5790 5786 5783 5780 5776 5773 5770 5767 5764 5761 5758 5755 5753 5750 5748
5838 5837 5836 5834 5833 5832 5830 5829 5827 5826 5824 5823 5821 5819 5817 5815 5812 5810 5808 5806 5803 5801 5798 5795 5792 5789 5786 5782 5779 5776 5773 5769 5766 5762 5759 5756 5753 5750 5747 5743 5740 5737 5735
5833 5832 5830 5829 5827 5826 5824 5823 5821 5819 5818 5816 5814 5812 5810 5808 5805 5803 5801 5798 5795 5792 5789 5786 5783 5779 5776 5772 5768 5765 5761 5758 5755 5752 5747 5744 5741 5737 5734 5731 5727 5724 5721
5827 5825 5824 5823 5821 5819 5818 5816 5814 5813 5811 5809 5807 5804 5802 5800 5797 5794 5792 5789 5786 5783 5780 5777 5773 5769 5765 5761 5757 5753 5749 5746 5743 5740 5735 5731 5728 5724 5722 5719 5715 5711 5708